DW5204 Weather Reports


Display with metric or nautical units.
time (UTC)temp
F
wind
direction
speed
MPH
gust
MPH
rain 1hr
in
rain 24hr
in
rain mn
in
humidity
%
barometer
mb
20260906223451 98 116 7.0 8.0 0.00 0.00 0.00 41 1011.3
20260906222949 99 239 8.0 14.0 0.00 0.00 0.00 41 1011.3
20260906222444 102 139 7.0 8.0 0.00 0.00 0.00 39 1011.3
20260906221941 103 85 3.0 5.0 0.00 0.00 0.00 37 1011.6
20260906221441 101 83 0.0 1.0 0.00 0.00 0.00 39 1011.3
20260906220937 100 178 3.0 5.0 0.00 0.00 0.00 39 1011.3
20260906220432 101 106 4.0 8.0 0.00 0.00 0.00 38 1011.3
20260906215931 102 131 7.0 9.0 0.00 0.00 0.00 39 1011.2
20260906215425 102 109 0.0 1.0 0.00 0.00 0.00 38 1011.3
20260906214923 100 175 7.0 9.0 0.00 0.00 0.00 39 1011.5
20260906214423 101 112 4.0 6.0 0.00 0.00 0.00 39 1011.4
20260906213922 99 90 3.0 5.0 0.00 0.00 0.00 39 1011.4
20260906213417 99 168 8.0 10.0 0.00 0.00 0.00 40 1011.6
20260906212914 99 84 3.0 3.0 0.00 0.00 0.00 41 1011.6
20260906212410 98 120 6.0 8.0 0.00 0.00 0.00 42 1011.8
20260906211910 99 107 6.0 7.0 0.00 0.00 0.00 41 1011.8
20260906211405 100 119 5.0 6.0 0.00 0.00 0.00 40 1011.7
20260906210859 100 71 3.0 6.0 0.00 0.00 0.00 40 1012.1
20260906210355 99 106 3.0 5.0 0.00 0.00 0.00 42 1012.0
20260906205849 98 118 6.0 9.0 0.00 0.00 0.00 42 1011.9
20260906205346 99 86 6.0 9.0 0.00 0.00 0.00 42 1012.1
20260906204841 98 116 4.0 5.0 0.00 0.00 0.00 42 1012.6
20260906204340 99 65 2.0 2.0 0.00 0.00 0.00 42 1012.2
20260906203839 100 106 5.0 7.0 0.00 0.00 0.00 42 1012.3
20260906203335 102 92 2.0 3.0 0.00 0.00 0.00 39 1012.4
20260906202832 99 85 1.0 2.0 0.00 0.00 0.00 43 1012.3
20260906202326 98 91 1.0 2.0 0.00 0.00 0.00 41 1012.4
20260906201821 100 115 8.0 11.0 0.00 0.00 0.00 42 1012.7
20260906201320 98 74 3.0 5.0 0.00 0.00 0.00 44 1012.8
20260906200816 96 106 4.0 7.0 0.00 0.00 0.00 46 1012.8
20260906200312 97 100 5.0 7.0 0.00 0.00 0.00 44 1012.8
20260906195807 97 82 4.0 6.0 0.00 0.00 0.00 46 1012.9
20260906195306 98 98 3.0 5.0 0.00 0.00 0.00 46 1012.9
20260906194759 99 98 1.0 3.0 0.00 0.00 0.00 44 1013.0
20260906194254 99 112 10.0 11.0 0.00 0.00 0.00 43 1012.9
20260906193749 100 191 4.0 5.0 0.00 0.00 0.00 41 1013.0
20260906193243 100 166 4.0 7.0 0.00 0.00 0.00 43 1013.2
20260906192740 101 125 1.0 1.0 0.00 0.00 0.00 43 1013.2
20260906192234 99 77 2.0 3.0 0.00 0.00 0.00 43 1013.4
20260906191733 100 176 7.0 9.0 0.00 0.00 0.00 42 1013.3
20260906191228 99 159 7.0 8.0 0.00 0.00 0.00 44 1013.4
20260906190722 97 168 5.0 7.0 0.00 0.00 0.00 47 1013.3
20260906190216 97 88 6.0 8.0 0.00 0.00 0.00 45 1013.4
20260906185716 97 133 7.0 8.0 0.00 0.00 0.00 47 1013.5
20260906185215 98 109 3.0 3.0 0.00 0.00 0.00 44 1013.3
20260906184709 97 105 5.0 8.0 0.00 0.00 0.00 47 1013.6
20260906184205 95 89 2.0 3.0 0.00 0.00 0.00 47 1013.4
20260906183701 96 104 5.0 7.0 0.00 0.00 0.00 46 1013.5
20260906183157 96 100 12.0 15.0 0.00 0.00 0.00 46 1013.7
20260906182656 97 113 8.0 9.0 0.00 0.00 0.00 43 1013.8
20260906182153 98 146 2.0 3.0 0.00 0.00 0.00 43 1014.0
20260906181648 98 122 5.0 7.0 0.00 0.00 0.00 44 1014.0
20260906181144 98 94 2.0 3.0 0.00 0.00 0.00 45 1014.0
20260906180638 99 181 9.0 10.0 0.00 0.00 0.00 42 1014.1
20260906180133 98 89 8.0 11.0 0.00 0.00 0.00 46 1014.0
20260906175631 98 66 4.0 6.0 0.00 0.00 0.00 47 1014.1
20260906175126 97 145 2.0 3.0 0.00 0.00 0.00 47 1014.3
20260906174624 98 158 6.0 8.0 0.00 0.00 0.00 46 1014.3
20260906174119 98 167 7.0 9.0 0.00 0.00 0.00 46 1014.3
20260906173615 99 180 9.0 10.0 0.00 0.00 0.00 44 1014.7
20260906173110 97 142 4.0 6.0 0.00 0.00 0.00 48 1014.7
20260906172610 99 6 3.0 5.0 0.00 0.00 0.00 46 1014.3
20260906172106 98 141 4.0 5.0 0.00 0.00 0.00 46 1014.8
20260906171605 96 80 2.0 3.0 0.00 0.00 0.00 50 1014.9
20260906171101 98 114 2.0 2.0 0.00 0.00 0.00 46 1014.9
20260906170556 99 180 9.0 13.0 0.00 0.00 0.00 46 1014.9
20260906170055 97 194 3.0 3.0 0.00 0.00 0.00 48 1015.0
20260906165552 96 144 4.0 7.0 0.00 0.00 0.00 50 1015.0
20260906165047 96 80 2.0 2.0 0.00 0.00 0.00 50 1015.1
20260906164546 97 125 3.0 3.0 0.00 0.00 0.00 48 1014.9
20260906164042 97 239 3.0 5.0 0.00 0.00 0.00 50 1015.0
20260906163537 95 121 3.0 3.0 0.00 0.00 0.00 52 1015.1
20260906163033 95 127 1.0 5.0 0.00 0.00 0.00 51 1015.2
20260906162530 93 169 2.0 2.0 0.00 0.00 0.00 52 1015.1
20260906162025 94 145 7.0 8.0 0.00 0.00 0.00 52 1014.9
20260906161520 95 240 1.0 2.0 0.00 0.00 0.00 52 1014.9
20260906161019 92 60 3.0 5.0 0.00 0.00 0.00 54 1014.9
20260906160518 92 72 2.0 5.0 0.00 0.00 0.00 55 1015.1
20260906160017 93 124 4.0 7.0 0.00 0.00 0.00 54 1015.1
20260906155514 92 72 3.0 6.0 0.00 0.00 0.00 54 1014.9
20260906155011 93 102 1.0 3.0 0.00 0.00 0.00 54 1015.0
20260906154506 93 78 0.0 0.0 0.00 0.00 0.00 54 1014.8
20260906154004 92 89 0.0 0.0 0.00 0.00 0.00 56 1014.8
20260906153503 91 151 3.0 3.0 0.00 0.00 0.00 58 1015.1
20260906152959 92 93 2.0 2.0 0.00 0.00 0.00 57 1014.8
20260906152453 91 112 4.0 6.0 0.00 0.00 0.00 59 1014.9
20260906151953 93 80 1.0 2.0 0.00 0.00 0.00 58 1014.8
20260906151448 91 155 5.0 7.0 0.00 0.00 0.00 60 1014.5
20260906150943 92 71 2.0 3.0 0.00 0.00 0.00 60 1014.7
20260906150438 91 116 1.0 1.0 0.00 0.00 0.00 61 1014.6
20260906145932 90 120 2.0 2.0 0.00 0.00 0.00 62 1014.6
20260906145432 89 76 1.0 1.0 0.00 0.00 0.00 63 1014.6
20260906144926 89 113 1.0 2.0 0.00 0.00 0.00 65 1014.6
20260906144421 89 27 3.0 3.0 0.00 0.00 0.00 65 1014.6
20260906143917 90 90 2.0 2.0 0.00 0.00 0.00 64 1014.7
20260906143412 89 94 0.0 0.0 0.00 0.00 0.00 66 1014.5
20260906142908 89 87 0.0 1.0 0.00 0.00 0.00 65 1014.8
20260906142407 88 60 0.0 1.0 0.00 0.00 0.00 66 1014.7
20260906141902 89 86 0.0 1.0 0.00 0.00 0.00 65 1014.7
20260906141402 88 89 0.0 0.0 0.00 0.00 0.00 67 1014.8
20260906140856 87 91 0.0 0.0 0.00 0.00 0.00 68 1015.0
20260906140351 88 74 0.0 1.0 0.00 0.00 0.00 66 1015.0
20260906135849 86 92 1.0 2.0 0.00 0.00 0.00 70 1014.8
20260906135343 87 95 1.0 1.0 0.00 0.00 0.00 69 1015.0
20260906134838 87 87 1.0 1.0 0.00 0.00 0.00 70 1014.8
20260906134333 86 79 0.0 0.0 0.00 0.00 0.00 72 1014.6
20260906133829 85 103 3.0 3.0 0.00 0.00 0.00 75 1014.7
20260906133324 85 85 1.0 2.0 0.00 0.00 0.00 73 1014.7
20260906132820 84 83 1.0 1.0 0.00 0.00 0.00 76 1014.8
20260906132315 83 75 2.0 2.0 0.00 0.00 0.00 77 1014.6
20260906131810 84 104 3.0 5.0 0.00 0.00 0.00 77 1014.8
20260906131306 83 89 0.0 1.0 0.00 0.00 0.00 78 1014.7
20260906130801 82 75 0.0 0.0 0.00 0.00 0.00 79 1014.8
20260906130256 82 103 2.0 2.0 0.00 0.00 0.00 80 1014.7
20260906125754 82 88 1.0 1.0 0.00 0.00 0.00 80 1014.7
20260906125253 82 74 1.0 1.0 0.00 0.00 0.00 80 1014.5
20260906124753 81 98 2.0 2.0 0.00 0.00 0.00 81 1014.3
20260906124249 81 94 1.0 1.0 0.00 0.00 0.00 82 1014.5
20260906123747 81 80 0.0 1.0 0.00 0.00 0.00 82 1014.5
20260906123242 80 90 1.0 1.0 0.00 0.00 0.00 83 1014.6
20260906122742 80 80 1.0 1.0 0.00 0.00 0.00 83 1014.2
20260906122237 80 88 1.0 1.0 0.00 0.00 0.00 84 1014.3
20260906121733 80 93 1.0 2.0 0.00 0.00 0.00 84 1014.3
20260906121230 80 88 1.0 1.0 0.00 0.00 0.00 84 1014.0
20260906120725 80 83 0.0 0.0 0.00 0.00 0.00 83 1013.9
20260906120222 80 99 1.0 2.0 0.00 0.00 0.00 83 1014.0
20260906115717 80 87 1.0 1.0 0.00 0.00 0.00 83 1013.8
20260906115212 80 129 2.0 2.0 0.00 0.00 0.00 82 1013.8
20260906114711 80 99 2.0 2.0 0.00 0.00 0.00 82 1014.0
20260906114207 80 89 0.0 1.0 0.00 0.00 0.00 82 1014.0
20260906113702 80 79 1.0 1.0 0.00 0.00 0.00 82 1014.1
20260906113201 80 87 0.0 0.0 0.00 0.00 0.00 82 1014.1
20260906112700 80 80 0.0 0.0 0.00 0.00 0.00 82 1014.0
20260906112158 80 101 0.0 0.0 0.00 0.00 0.00 82 1013.6
20260906111657 80 100 0.0 1.0 0.00 0.00 0.00 82 1013.8
20260906111152 80 86 0.0 0.0 0.00 0.00 0.00 81 1014.1
20260906110647 80 96 0.0 1.0 0.00 0.00 0.00 82 1013.8
20260906110142 80 77 0.0 0.0 0.00 0.00 0.00 82 1013.6
20260906105636 80 88 0.0 0.0 0.00 0.00 0.00 82 1013.4
20260906105133 80 87 0.0 0.0 0.00 0.00 0.00 81 1013.4
20260906104632 80 103 0.0 0.0 0.00 0.00 0.00 81 1013.4
20260906104131 81 127 1.0 2.0 0.00 0.00 0.00 81 1013.7
20260906103629 81 84 0.0 0.0 0.00 0.00 0.00 80 1013.4
20260906103125 81 87 0.0 0.0 0.00 0.00 0.00 80 1013.4
20260906102620 81 89 0.0 0.0 0.00 0.00 0.00 80 1013.2
20260906102115 81 87 0.0 0.0 0.00 0.00 0.00 80 1013.5
20260906101614 81 96 0.0 0.0 0.00 0.00 0.00 79 1013.6
20260906101109 81 85 0.0 0.0 0.00 0.00 0.00 79 1013.3
20260906100605 81 93 0.0 0.0 0.00 0.00 0.00 79 1013.2
20260906100105 82 87 0.0 0.0 0.00 0.00 0.00 78 1013.4
20260906095604 81 87 0.0 0.0 0.00 0.00 0.00 79 1013.4
20260906095100 81 84 0.0 0.0 0.00 0.00 0.00 79 1013.2
20260906094559 82 95 0.0 0.0 0.00 0.00 0.00 78 1013.3
20260906094055 82 100 0.0 1.0 0.00 0.00 0.00 78 1013.3
20260906093550 82 90 0.0 0.0 0.00 0.00 0.00 78 1013.1
20260906093045 82 87 0.0 0.0 0.00 0.00 0.00 78 1013.2
20260906092540 82 94 0.0 0.0 0.00 0.00 0.00 78 1013.1
20260906092035 82 80 0.0 0.0 0.00 0.00 0.00 78 1012.9
20260906091531 82 108 1.0 2.0 0.00 0.00 0.00 77 1013.2
20260906091027 82 118 0.0 1.0 0.00 0.00 0.00 77 1012.9
20260906090522 82 172 0.0 0.0 0.00 0.00 0.00 77 1013.0
20260906090017 82 75 1.0 2.0 0.00 0.00 0.00 77 1012.8
20260906085516 82 155 0.0 1.0 0.00 0.00 0.00 77 1012.7
20260906085015 82 97 1.0 2.0 0.00 0.00 0.00 77 1012.7
20260906084510 82 162 3.0 6.0 0.00 0.00 0.00 77 1012.9
20260906084009 82 82 0.0 0.0 0.00 0.00 0.00 77 1012.6
20260906083505 82 64 0.0 1.0 0.00 0.00 0.00 76 1012.6
20260906083004 82 92 0.0 0.0 0.00 0.00 0.00 76 1012.8
20260906082459 82 82 0.0 0.0 0.00 0.00 0.00 75 1012.8
20260906081955 83 88 0.0 0.0 0.00 0.00 0.00 75 1012.6
20260906081450 83 86 0.0 0.0 0.00 0.00 0.00 75 1012.7
20260906080946 83 85 0.0 0.0 0.00 0.00 0.00 75 1012.8
20260906080442 83 140 0.0 0.0 0.00 0.00 0.00 75 1012.7
20260906075937 83 89 0.0 0.0 0.00 0.00 0.00 74 1012.7
20260906075432 83 141 3.0 3.0 0.00 0.00 0.00 74 1012.8
20260906074927 83 137 2.0 2.0 0.00 0.00 0.00 73 1012.7
20260906074427 83 85 0.0 0.0 0.00 0.00 0.00 74 1012.6
20260906073926 83 100 0.0 1.0 0.00 0.00 0.00 73 1012.7
20260906073420 83 52 0.0 0.0 0.00 0.00 0.00 73 1012.9
20260906072917 83 95 0.0 0.0 0.00 0.00 0.00 72 1012.8
20260906072412 84 68 0.0 1.0 0.00 0.00 0.00 72 1012.9
20260906071908 84 83 0.0 0.0 0.00 0.00 0.00 71 1013.0
20260906071403 84 79 0.0 0.0 0.00 0.00 0.00 71 1013.0
20260906070859 84 85 0.0 0.0 0.00 0.00 0.00 71 1013.1
20260906070355 84 82 0.0 0.0 0.00 0.00 0.00 71 1013.2
20260906065850 84 56 0.0 0.0 0.00 0.00 0.00 70 1013.1
20260906065344 84 99 0.0 0.0 0.00 0.00 0.00 70 1013.5
20260906064840 84 82 0.0 0.0 0.00 0.00 0.00 70 1013.0
20260906064336 84 98 2.0 3.0 0.00 0.00 0.00 70 1013.1
20260906063831 84 73 0.0 0.0 0.00 0.00 0.00 69 1013.1
20260906063326 85 87 0.0 0.0 0.00 0.00 0.00 69 1013.2
20260906062821 85 153 1.0 2.0 0.00 0.00 0.00 69 1013.2
20260906062320 85 93 0.0 0.0 0.00 0.00 0.00 69 1012.9
20260906061816 85 87 0.0 0.0 0.00 0.00 0.00 69 1012.9
20260906061312 85 90 0.0 0.0 0.00 0.00 0.00 68 1012.9
20260906060807 85 88 0.0 1.0 0.00 0.00 0.00 68 1013.0
20260906060305 85 157 3.0 5.0 0.00 0.00 0.00 68 1013.2
20260906055800 85 136 1.0 1.0 0.00 0.00 0.00 68 1013.1
20260906055255 85 127 0.0 1.0 0.00 0.00 0.00 68 1013.2
20260906054750 85 67 0.0 1.0 0.00 0.00 0.00 68 1013.1
20260906054246 86 97 0.0 0.0 0.00 0.00 0.00 67 1012.9
20260906053743 86 87 0.0 0.0 0.00 0.00 0.00 67 1013.4
20260906053238 86 94 0.0 0.0 0.00 0.00 0.00 67 1013.3
20260906052733 86 96 0.0 0.0 0.00 0.00 0.00 66 1013.3
20260906052229 86 96 1.0 1.0 0.00 0.00 0.00 66 1013.2
20260906051726 86 74 0.0 0.0 0.00 0.00 0.00 66 1013.1
20260906051225 86 86 0.0 0.0 0.00 0.00 0.00 66 1013.2
20260906050721 86 118 1.0 1.0 0.00 0.00 0.00 66 1013.3
20260906050216 86 85 0.0 1.0 0.00 0.00 0.00 65 1013.2
20260906045714 86 104 3.0 3.0 0.00 0.00 0.00 65 1013.1
20260906045209 87 156 6.0 8.0 0.00 0.00 0.00 65 1013.2
20260906044705 87 87 0.0 1.0 0.00 0.00 0.00 65 1013.4
20260906044200 87 194 6.0 7.0 0.00 0.00 0.00 64 1013.0
20260906043656 87 99 1.0 2.0 0.00 0.00 0.00 64 1013.0
20260906043152 87 104 3.0 6.0 0.00 0.00 0.00 64 1013.1
20260906042651 87 159 2.0 2.0 0.00 0.00 0.00 64 1013.0
20260906042145 87 53 2.0 2.0 0.00 0.00 0.00 63 1012.9
20260906041641 87 32 1.0 2.0 0.00 0.00 0.00 63 1013.2
20260906041136 87 96 0.0 0.0 0.00 0.00 0.00 63 1013.1
20260906040631 87 146 3.0 6.0 0.00 0.00 0.00 62 1013.0
20260906040127 87 157 3.0 6.0 0.00 0.00 0.00 62 1013.2
20260906035622 88 163 2.0 3.0 0.00 0.00 0.00 62 1013.2
20260906035118 88 136 2.0 3.0 0.00 0.00 0.00 61 1013.1
20260906034618 88 123 1.0 1.0 0.00 0.00 0.00 61 1013.0
20260906034112 88 135 5.0 6.0 0.00 0.00 0.00 61 1013.0
20260906033608 88 187 5.0 8.0 0.00 0.00 0.00 60 1013.0
20260906033103 88 45 0.0 0.0 0.00 0.00 0.00 59 1012.9
20260906032600 89 84 2.0 2.0 0.00 0.00 0.00 59 1012.8
20260906032059 89 149 1.0 2.0 0.00 0.00 0.00 59 1013.1
20260906031555 89 135 3.0 3.0 0.00 0.00 0.00 58 1013.1
20260906031050 89 116 5.0 7.0 0.00 0.00 0.00 58 1013.2
20260906030549 89 175 5.0 6.0 0.00 0.00 0.00 58 1013.1
20260906030049 89 92 4.0 6.0 0.00 0.00 0.00 58 1013.0
20260906025550 89 141 4.0 6.0 0.00 0.00 0.00 57 1013.1
20260906025048 89 172 7.0 8.0 0.00 0.00 0.00 57 1013.0
20260906024544 89 196 3.0 5.0 0.00 0.00 0.00 57 1013.0
20260906024043 89 188 7.0 8.0 0.00 0.00 0.00 57 1012.9
20260906023539 89 132 6.0 10.0 0.00 0.00 0.00 57 1012.8
20260906023034 90 162 4.0 7.0 0.00 0.00 0.00 57 1012.6
20260906022529 90 181 4.0 7.0 0.00 0.00 0.00 56 1012.6
20260906022025 90 163 5.0 8.0 0.00 0.00 0.00 56 1012.4
20260906021520 91 85 1.0 1.0 0.00 0.00 0.00 55 1012.3
20260906021014 91 171 5.0 7.0 0.00 0.00 0.00 55 1012.1
20260906020513 91 129 7.0 9.0 0.00 0.00 0.00 55 1012.4
20260906020013 91 171 5.0 7.0 0.00 0.00 0.00 54 1012.1
20260906015507 92 161 7.0 8.0 0.00 0.00 0.00 53 1012.2
20260906015007 93 156 5.0 9.0 0.00 0.00 0.00 51 1012.1
20260906014501 93 191 7.0 9.0 0.00 0.00 0.00 51 1012.1
20260906013957 93 130 8.0 10.0 0.00 0.00 0.00 51 1011.9
20260906013453 94 217 11.0 15.0 0.00 0.00 0.00 50 1011.9
20260906012948 94 145 9.0 13.0 0.00 0.00 0.00 49 1011.5
20260906012443 95 137 5.0 6.0 0.00 0.00 0.00 48 1011.5
20260906011942 96 129 3.0 6.0 0.00 0.00 0.00 44 1011.6
20260906011438 96 99 1.0 2.0 0.00 0.00 0.00 44 1011.2
20260906010933 96 87 0.0 1.0 0.00 0.00 0.00 44 1011.2
20260906010428 96 90 5.0 5.0 0.00 0.00 0.00 44 1011.4
20260906005924 96 104 6.0 8.0 0.00 0.00 0.00 43 1011.2
20260906005424 96 174 3.0 5.0 0.00 0.00 0.00 43 1011.2
20260906004922 97 106 6.0 7.0 0.00 0.00 0.00 43 1011.1
20260906004416 96 134 4.0 6.0 0.00 0.00 0.00 42 1011.1
20260906003912 97 112 2.0 2.0 0.00 0.00 0.00 42 1011.2
20260906003407 97 121 1.0 2.0 0.00 0.00 0.00 42 1011.2
20260906002903 98 136 6.0 8.0 0.00 0.00 0.00 41 1011.1
20260906002402 98 17 1.0 2.0 0.00 0.00 0.00 40 1011.2
20260906001858 98 100 0.0 1.0 0.00 0.00 0.00 41 1011.2
20260906001353 98 124 5.0 7.0 0.00 0.00 0.00 40 1011.3
20260906000848 98 88 2.0 3.0 0.00 0.00 0.00 41 1011.2
20260906000348 98 164 4.0 5.0 0.00 0.00 0.00 41 1011.1
20260905235843 98 110 4.0 6.0 0.00 0.00 0.00 41 1011.1
20260905235337 100 100 1.0 2.0 0.00 0.00 0.00 39 1010.9
20260905234833 98 90 2.0 3.0 0.00 0.00 0.00 40 1010.7
20260905234328 101 125 1.0 2.0 0.00 0.00 0.00 38 1010.7
20260905233823 100 100 0.0 1.0 0.00 0.00 0.00 38 1010.9
20260905233317 99 168 3.0 5.0 0.00 0.00 0.00 39 1010.9